Theta_e
313 313 313 313 311 309 309 311 313 314 312 309 308 309 310 312 313 316 319 321 321 317 312 310 312 311 313 322 322 324 330 330 329 324 323 328 332 335 335 327 319 319 316 316 316 316 319 320 320 320 322 324 325 325 322 326 330 329 330 331 330 332 334 331 327 325 328 329 324 322 324 328 326 322 319 322 332 335 333 338 336 334 334 333 333 333 333 334
313 313 313 313 312 310 309 309 311 312 313 309 308 309 309 310 313 315 318 321 321 320 316 311 314 315 314 324 326 326 331 328 326 324 325 331 332 333 335 329 318 317 317 315 315 316 322 325 321 322 327 329 327 325 324 325 327 332 333 328 329 336 334 327 326 323 323 324 323 323 323 325 326 324 321 324 333 333 333 337 337 342 340 333 333 332 333 331
313 313 313 313 312 311 309 308 309 310 312 310 307 308 308 309 312 314 317 320 321 321 320 314 316 318 318 325 327 327 329 325 325 325 328 331 332 332 334 331 320 316 317 316 316 316 320 323 320 325 334 334 331 329 327 325 324 333 333 327 334 336 325 319 320 320 319 322 325 322 320 322 323 322 321 326 333 331 337 344 340 347 347 337 333 330 331 330
313 313 313 313 313 312 310 308 309 310 310 309 307 307 308 309 311 313 316 319 321 321 321 319 319 322 322 323 324 324 325 325 327 327 328 331 332 333 332 328 321 317 316 315 316 316 318 320 320 328 337 334 331 329 328 327 324 326 327 331 337 329 318 317 317 317 317 320 324 322 320 321 319 319 321 326 332 331 336 341 340 349 348 336 332 330 330 329
313 313 313 313 312 312 312 309 309 309 309 309 307 307 308 308 309 312 314 316 320 321 320 321 321 324 324 320 320 322 323 327 330 327 328 330 331 334 332 324 319 317 316 315 316 318 319 320 324 334 340 336 331 330 331 330 325 324 324 330 330 320 316 318 316 315 315 318 322 321 320 319 317 318 323 328 331 331 331 332 335 344 341 333 332 330 329 328
312 313 313 312 312 312 312 310 308 308 308 308 307 307 308 309 309 311 314 314 318 320 320 320 320 323 324 320 320 322 323 327 328 326 328 330 331 333 333 326 318 317 316 315 317 318 321 322 325 332 337 337 332 332 335 328 324 326 326 328 326 318 316 318 316 316 316 319 321 320 319 317 317 317 320 325 326 330 330 325 330 337 333 331 331 330 330 329
312 313 313 312 312 312 312 311 309 307 307 308 307 307 307 309 309 311 313 314 316 319 320 320 321 324 323 320 322 323 324 324 322 324 326 328 330 331 333 327 319 318 317 317 319 321 324 325 327 332 333 334 332 332 333 326 324 328 328 328 326 319 316 316 317 318 319 319 319 318 316 315 318 317 316 320 321 327 325 314 320 330 330 331 330 330 330 329
311 312 312 313 312 311 312 311 310 308 307 307 307 307 308 309 309 311 313 314 316 318 320 320 323 326 323 321 323 324 324 322 318 321 324 324 328 331 331 324 319 318 317 318 320 322 325 325 326 330 332 332 332 332 329 328 328 328 330 329 323 318 316 316 317 321 320 318 319 319 319 320 321 316 315 320 321 322 320 316 325 331 329 331 332 331 330 328
311 311 311 312 312 312 311 311 310 308 306 306 307 306 309 310 310 311 313 314 316 317 319 320 323 326 323 321 323 323 323 320 317 319 321 321 325 330 329 323 320 318 318 319 319 320 324 325 326 330 334 333 331 331 327 331 334 329 330 328 323 320 317 315 315 319 320 318 320 323 325 327 322 316 320 323 322 324 327 331 336 333 332 333 332 331 329 329
311 311 311 312 312 312 311 310 310 309 307 306 307 306 309 312 311 312 312 313 316 317 319 320 323 325 322 321 322 322 320 317 317 318 320 320 322 327 327 323 321 318 318 320 319 321 322 324 327 330 336 335 331 331 328 331 336 331 328 326 325 325 320 318 318 320 319 318 320 323 326 327 321 318 324 326 323 330 338 340 337 334 336 334 332 332 329 329
311 311 311 312 312 312 311 310 309 308 307 307 307 306 309 313 313 313 312 313 316 317 319 321 322 324 322 321 323 322 320 317 318 318 319 320 321 326 326 324 322 318 318 320 319 321 322 323 325 327 334 334 331 330 328 329 333 330 326 326 326 325 325 325 325 323 319 318 321 322 325 326 321 318 323 325 321 327 341 345 337 335 336 333 332 332 329 329
311 311 311 312 312 312 311 310 309 307 307 306 308 307 309 314 314 314 313 312 316 316 318 320 322 324 322 322 323 322 321 319 319 320 320 319 321 326 326 327 326 319 317 320 320 320 322 323 325 329 332 332 330 330 329 330 331 328 326 328 326 323 327 327 326 326 319 318 322 322 325 325 322 320 322 323 320 325 339 345 339 335 334 333 332 332 330 329
311 311 311 311 312 311 310 310 309 308 307 306 308 307 309 314 314 314 313 313 316 316 317 320 321 323 323 323 322 321 322 321 320 320 320 320 321 326 326 328 328 321 317 319 320 320 322 324 327 330 330 330 330 329 329 329 329 328 326 329 328 326 329 328 326 326 320 319 321 324 327 327 326 325 323 321 321 328 339 343 338 333 333 333 332 332 331 329
310 311 311 311 311 312 310 310 310 309 308 307 308 307 309 313 315 314 314 314 316 316 318 320 321 322 323 324 322 320 321 322 322 320 321 322 322 326 326 324 324 321 318 319 320 321 323 324 325 327 328 329 330 327 325 326 327 328 328 329 331 333 335 331 326 325 323 320 321 326 328 327 331 334 329 321 319 326 335 339 336 332 333 332 332 332 331 330
310 310 310 310 311 311 310 310 310 310 309 308 308 307 309 313 314 314 314 315 317 317 319 320 321 322 322 324 322 320 321 322 322 320 320 322 323 326 324 321 321 320 320 320 321 322 323 324 326 329 328 326 330 330 326 326 326 327 332 333 333 335 336 333 327 325 327 322 320 327 329 330 331 333 332 322 317 321 325 331 332 331 332 332 332 331 332 331
310 310 310 311 311 311 310 310 310 311 310 309 309 309 311 313 314 315 315 315 317 318 319 321 322 322 323 324 323 322 323 322 321 320 320 321 324 324 321 320 321 321 322 322 323 323 323 324 328 330 328 326 328 331 329 330 329 327 333 336 334 332 333 334 330 324 327 324 321 325 330 333 328 323 325 319 315 318 319 323 326 328 330 329 330 331 332 332
310 310 310 311 311 311 310 309 310 311 311 310 310 311 312 313 313 315 315 316 318 320 320 321 321 322 323 323 323 324 323 322 321 320 321 322 324 323 320 320 321 321 323 323 324 324 325 326 327 328 329 327 327 330 333 335 333 329 331 336 335 332 331 335 333 324 326 326 323 324 326 329 326 323 324 319 316 318 318 318 320 323 326 326 328 329 330 332
309 309 310 310 311 311 310 309 309 310 310 310 311 313 313 313 313 315 316 317 319 321 321 320 320 323 324 322 323 324 323 323 322 321 322 322 322 321 320 321 321 322 324 325 325 325 328 328 327 330 331 328 326 329 335 336 334 331 331 335 335 333 331 334 334 326 325 327 326 326 325 324 325 326 326 322 318 319 319 318 317 317 320 323 325 326 327 330
308 309 309 310 310 311 311 310 310 309 309 310 312 313 313 313 315 317 316 318 321 321 322 321 321 325 326 323 323 323 322 323 323 323 323 322 321 320 320 321 322 322 324 325 326 326 328 330 331 333 332 329 326 328 333 333 330 331 331 333 335 335 332 331 332 327 324 326 327 327 327 324 324 324 324 323 319 319 320 318 316 315 315 317 320 322 323 326
309 309 309 309 310 310 310 310 310 310 310 311 313 313 313 314 317 319 317 319 321 320 321 322 321 323 325 322 321 323 323 323 323 324 323 321 320 321 321 322 323 324 323 324 327 326 326 330 331 331 331 330 327 327 330 330 329 331 331 333 333 335 334 331 330 327 322 326 328 326 326 325 324 323 322 321 319 319 321 319 316 315 314 314 316 318 320 322
309 309 309 309 310 310 310 310 310 310 310 313 313 313 313 315 318 319 317 318 319 317 319 321 321 321 322 322 321 322 323 323 323 323 322 321 320 322 323 323 325 326 323 323 327 327 326 330 330 328 329 329 327 327 330 333 332 332 332 332 332 334 335 332 329 325 319 325 330 325 324 324 322 322 320 319 319 319 319 320 319 317 314 313 313 315 317 318
308 308 308 309 310 310 309 310 310 310 312 313 313 312 313 314 316 315 315 317 318 317 318 319 320 321 321 321 321 321 323 323 324 323 321 321 321 323 324 324 326 326 324 325 329 329 329 330 329 328 328 328 327 327 330 334 334 334 332 332 334 332 331 330 325 320 318 324 331 327 323 323 321 320 319 319 318 318 318 317 319 319 317 314 313 313 314 317
307 307 308 309 309 309 309 310 310 311 312 313 312 312 312 312 313 313 315 318 318 317 318 318 320 322 322 322 321 321 323 323 325 323 320 321 322 323 324 325 326 325 325 327 329 330 331 329 327 328 328 328 328 327 330 333 334 334 333 333 335 332 332 336 328 318 318 321 325 324 322 321 320 320 319 317 317 317 318 318 317 318 319 317 315 313 313 315
306 308 309 307 308 310 310 310 310 312 313 312 312 312 311 312 313 314 316 318 318 318 317 317 319 321 323 323 321 321 322 323 324 322 320 322 323 323 324 324 325 326 325 326 327 329 330 328 327 328 328 328 329 329 330 332 334 333 332 333 334 332 332 334 326 320 320 321 321 321 326 330 327 325 323 320 320 317 316 317 317 317 317 317 317 316 315 315
306 308 309 308 309 310 310 310 312 312 312 312 312 311 311 313 313 314 316 317 317 318 317 317 318 319 321 321 321 321 323 323 323 322 319 322 323 323 324 323 324 326 325 326 327 328 328 327 328 328 328 329 329 330 329 331 334 333 331 331 332 333 330 325 323 325 327 330 326 322 332 342 337 333 330 326 325 322 317 317 318 317 316 316 317 317 316 315
306 308 309 309 309 310 310 311 311 312 312 311 311 312 312 313 313 313 316 318 317 318 318 318 318 319 321 322 321 322 325 325 322 320 319 321 321 322 324 323 323 325 324 324 326 328 328 326 327 328 328 330 330 330 330 330 333 333 332 331 331 331 328 324 325 330 334 334 326 322 332 342 337 334 333 330 329 326 320 319 319 317 316 317 316 316 316 315
307 307 308 309 308 310 311 311 311 311 312 312 312 312 312 313 313 312 316 319 317 317 318 317 318 319 321 322 321 323 327 325 322 321 320 321 322 322 325 325 324 324 323 324 328 330 328 327 329 329 329 331 330 330 330 329 333 334 331 331 330 328 328 324 325 334 335 327 325 326 329 333 332 331 330 328 327 327 324 322 320 317 315 316 316 316 317 316
308 308 309 309 308 310 311 311 311 311 311 312 311 312 312 313 313 312 315 319 319 318 318 318 317 318 320 322 322 323 325 324 324 323 320 321 322 323 325 325 325 325 322 324 330 330 327 327 329 329 330 330 330 331 330 329 333 331 327 327 326 326 327 323 324 334 331 326 331 329 323 329 336 335 331 327 327 329 327 325 322 320 318 316 316 316 316 316
308 308 308 308 309 310 311 311 311 311 311 311 312 313 312 312 312 313 316 319 319 318 318 318 318 319 322 323 323 323 323 323 325 324 320 321 322 323 325 324 322 325 324 325 330 329 327 328 327 327 329 330 332 333 330 330 332 327 325 326 324 325 326 323 328 336 333 333 337 329 325 334 338 336 333 329 329 330 327 326 324 323 322 319 317 317 316 316
308 308 308 308 310 311 311 311 311 311 311 312 312 311 311 311 312 315 318 318 319 320 319 319 318 321 324 325 325 324 323 324 324 322 321 322 323 323 324 325 324 326 326 327 328 327 327 328 326 327 329 329 332 331 328 331 330 327 329 330 329 330 331 331 334 336 335 336 336 330 331 336 336 338 337 331 331 330 326 326 325 322 324 324 323 321 318 317
308 308 308 309 311 311 310 311 311 311 312 312 311 310 311 312 312 316 319 317 319 322 322 321 319 322 325 325 326 325 324 324 323 322 323 323 323 324 325 326 327 327 327 327 327 325 327 328 329 329 328 327 330 328 326 328 328 330 334 334 334 333 333 335 335 334 335 336 334 329 330 334 336 337 335 331 329 327 325 326 325 325 327 328 326 323 321 320
308 308 309 310 311 311 310 312 311 311 312 311 311 310 313 314 313 317 319 315 318 322 323 322 321 322 324 325 325 325 325 325 323 323 325 324 325 325 326 328 328 329 329 328 327 326 326 327 328 329 326 325 329 329 326 326 328 331 333 333 336 334 334 336 334 334 336 333 327 324 328 333 333 331 331 330 327 325 324 322 322 324 326 327 326 324 324 323
308 309 310 310 311 311 311 311 311 312 311 311 311 311 314 315 315 316 317 315 317 320 322 322 322 322 323 325 325 325 325 325 323 323 324 325 326 325 326 327 327 329 331 329 328 328 327 326 326 327 327 326 328 330 328 327 330 331 329 332 336 334 337 340 335 335 337 330 322 321 327 332 332 330 328 327 325 326 325 323 322 322 323 325 324 323 322 321
309 310 311 311 311 311 311 311 312 311 310 311 312 313 314 316 315 315 316 317 316 319 323 323 322 323 323 325 325 324 326 325 323 324 324 325 326 326 327 327 326 328 331 329 328 329 330 330 327 326 329 328 326 329 329 328 329 329 329 333 334 335 340 341 338 338 335 328 322 321 327 334 336 333 326 321 323 323 322 323 322 321 321 320 319 318 319 320
310 311 311 311 311 311 311 311 311 310 310 311 313 314 314 316 317 315 316 317 316 319 324 323 322 324 324 325 325 324 326 326 324 324 325 326 326 326 327 328 326 326 329 329 328 328 331 332 328 325 327 326 326 328 326 327 329 329 331 335 335 336 339 336 331 332 332 330 327 324 327 331 331 328 322 319 322 322 320 321 321 322 320 317 318 320 320 320
310 311 311 311 311 310 311 311 311 310 311 312 313 314 314 316 318 316 314 317 318 319 323 324 323 325 325 326 326 325 325 325 324 324 325 326 326 325 326 327 326 325 326 327 328 329 330 330 326 326 328 326 327 328 325 327 332 329 330 333 330 329 334 333 325 324 329 333 332 328 328 329 328 326 324 324 326 324 322 322 323 325 323 320 323 325 323 325
310 311 310 309 310 310 310 311 310 310 312 313 314 314 314 315 317 317 315 318 320 320 323 326 324 324 325 326 326 325 324 324 325 325 326 326 326 325 325 326 325 324 324 324 328 329 330 329 325 326 329 325 325 329 326 326 330 330 331 330 327 326 332 334 329 327 331 333 333 329 327 331 331 330 330 328 326 323 324 325 324 325 323 321 324 326 325 327
309 310 309 309 310 310 310 311 310 311 313 314 314 314 312 313 314 315 316 317 319 320 323 325 324 324 325 325 325 324 322 324 326 326 327 326 326 325 324 325 325 323 323 324 327 329 329 329 326 325 327 323 322 327 328 325 325 328 330 327 329 332 332 331 331 331 331 332 334 329 323 327 328 328 329 327 326 329 333 331 326 326 324 320 323 327 324 324
308 310 308 307 309 310 311 311 310 311 313 314 315 314 311 311 313 314 315 316 317 320 323 321 321 323 324 324 325 324 322 324 326 327 327 326 327 326 323 325 325 323 323 323 326 327 327 330 328 324 324 323 324 327 330 327 324 326 328 327 329 332 331 331 331 331 331 330 333 330 325 327 327 323 323 323 323 326 331 330 328 329 326 322 325 326 323 323
309 310 307 305 309 311 310 311 311 312 313 314 314 312 310 311 312 312 315 316 314 318 321 318 317 322 324 323 325 325 323 324 325 326 327 326 328 327 323 323 325 323 322 322 325 325 325 329 330 324 322 325 328 327 328 328 325 325 330 329 328 327 328 333 332 330 332 332 334 334 329 331 329 321 319 322 320 320 323 324 325 327 326 325 325 322 320 321
309 309 305 305 309 310 310 312 312 312 313 313 312 309 308 311 312 312 314 314 311 312 315 315 315 319 321 323 325 325 325 325 324 325 327 326 327 328 325 322 323 324 323 323 324 324 325 327 327 325 325 328 329 326 326 327 325 326 328 328 328 326 327 333 332 329 331 330 332 332 328 331 334 324 317 318 319 318 320 321 321 323 324 326 324 318 316 319
310 308 305 305 309 309 310 311 308 308 311 311 309 308 309 311 312 312 313 314 312 311 311 312 312 314 317 322 325 325 326 326 325 324 326 326 325 327 326 322 323 323 322 323 323 322 325 327 325 325 326 325 323 323 326 328 325 325 326 327 329 327 326 331 332 330 331 328 326 328 327 331 333 325 318 317 318 320 322 323 322 323 323 323 322 317 314 317
309 307 305 306 308 308 310 309 306 307 309 309 308 308 309 310 311 311 312 314 313 312 312 312 311 312 314 316 320 324 326 326 325 324 325 325 324 324 324 322 323 322 321 324 322 320 324 326 325 324 323 322 321 321 324 326 324 325 326 327 328 326 325 328 328 328 331 329 327 328 329 330 332 328 322 320 320 321 322 320 320 322 321 319 319 320 318 318
305 305 306 306 307 308 309 309 308 308 308 308 308 308 307 308 309 310 312 313 313 312 312 311 311 312 312 312 314 319 322 324 326 324 325 325 324 324 324 322 323 323 321 323 321 321 324 324 325 326 325 325 326 325 326 325 325 326 325 325 326 325 326 327 325 325 328 329 328 329 329 330 336 335 327 322 322 322 321 317 316 321 322 322 324 326 323 322
305 305 305 306 306 307 308 308 309 309 308 308 309 309 309 308 307 308 311 311 311 312 313 311 310 310 311 311 312 314 316 319 323 325 325 325 325 325 324 322 323 322 321 323 321 322 327 325 323 327 329 329 330 329 328 326 325 326 325 324 325 325 325 326 325 325 327 328 327 328 328 328 330 330 323 323 325 323 320 317 313 316 320 322 327 330 327 327
307 305 304 305 304 305 306 307 308 309 308 309 309 309 309 309 307 307 309 309 309 311 313 311 309 310 311 311 313 315 315 316 319 323 326 326 326 325 323 322 323 322 323 325 321 323 327 324 322 325 327 328 329 328 325 325 325 326 326 325 324 325 324 325 326 326 326 326 326 326 326 325 327 328 325 327 328 324 321 320 317 318 320 322 324 326 327 328
307 306 305 305 305 305 307 308 308 309 309 309 309 308 308 309 308 308 309 309 308 310 312 310 309 311 312 312 314 315 314 315 318 321 324 325 324 324 324 323 323 323 325 323 320 322 326 324 322 324 323 324 327 327 324 324 325 325 326 325 324 324 324 324 327 326 324 325 325 324 324 325 331 336 332 329 325 321 321 323 322 321 322 323 321 323 329 330
306 306 306 306 307 308 308 308 308 308 309 309 309 308 308 309 309 309 309 308 308 309 311 311 310 312 312 312 315 315 314 315 317 318 322 324 325 324 325 325 323 323 323 321 318 320 324 323 322 323 323 325 328 328 325 324 324 324 325 325 324 324 324 324 325 324 324 325 325 324 324 324 327 332 333 328 320 318 320 321 318 317 320 322 321 323 331 333
304 305 305 305 306 308 308 307 307 308 308 309 309 308 308 308 309 308 308 308 309 309 310 312 311 310 311 311 313 316 316 316 317 316 317 321 324 325 325 325 324 322 320 319 319 320 322 323 322 321 323 325 327 327 325 324 324 324 324 325 324 324 324 324 324 323 323 324 323 325 327 324 321 323 328 326 320 318 320 316 313 317 322 324 323 324 328 329
305 306 305 305 306 306 307 307 307 308 308 308 309 308 308 308 308 308 307 308 310 309 309 311 311 309 310 310 312 315 315 314 316 317 316 318 324 326 326 325 323 322 321 320 320 321 323 324 322 321 322 323 324 325 325 324 325 325 324 324 324 324 324 323 324 323 323 324 322 323 325 323 320 320 322 324 323 321 320 317 316 319 322 322 323 322 323 325
302 304 304 306 306 305 306 306 306 307 308 308 308 308 307 307 307 307 307 307 309 310 309 309 310 309 310 310 311 313 313 312 313 315 316 319 322 321 322 324 324 322 322 321 321 322 323 323 322 321 323 322 322 324 326 324 324 325 324 324 324 324 324 324 324 323 323 324 323 324 324 322 321 321 321 323 323 321 320 320 320 320 319 319 320 319 320 322
300 302 303 305 305 305 305 305 306 307 307 307 307 307 307 308 307 307 307 307 307 308 308 307 308 310 311 311 311 310 311 312 314 315 316 318 318 316 317 322 322 321 322 323 322 322 322 322 321 321 323 323 322 322 323 324 325 325 324 323 323 323 323 323 324 323 323 323 324 324 323 321 322 322 321 321 321 320 320 320 319 319 319 318 318 317 317 316
Wind_Speed
31 29 29 28 28 28 27 26 25 25 25 25 27 28 27 26 24 25 25 25 25 25 26 26 26 29 29 23 21 20 18 22 20 15 15 22 28 24 24 27 15 9 17 17 16 16 10 8 10 10 9 5 2 1 1 1 2 2 3 2 2 3 4 5 6 6 4 4 5 5 3 7 4 2 1 2 5 3 3 2 3 4 4 3 5 2 21 28
31 30 29 29 29 28 27 27 26 26 25 26 28 28 28 27 25 25 25 25 24 24 24 25 24 24 26 22 18 17 15 18 16 15 25 28 25 26 26 28 21 13 17 20 19 21 13 8 10 10 6 2 1 1 0 0 3 2 3 2 4 4 4 5 7 6 3 3 5 3 2 5 6 5 3 3 2 1 3 1 4 4 5 2 3 13 25 27
31 31 30 30 30 29 28 28 27 27 26 27 29 29 29 29 26 25 25 25 24 23 23 27 26 23 24 20 14 14 10 6 8 15 29 31 26 27 26 28 27 18 19 22 22 24 18 15 15 10 5 2 1 2 1 0 1 2 3 2 5 4 3 4 5 6 4 4 7 3 2 2 3 3 1 4 4 1 4 4 0 2 3 2 7 16 24 25
32 31 31 31 30 30 29 28 28 28 27 27 30 30 30 29 28 26 26 25 25 23 21 25 27 24 26 21 16 14 3 7 7 14 29 30 29 29 24 28 29 20 20 22 21 21 18 18 15 7 5 2 1 2 2 1 1 2 3 4 5 3 2 4 5 5 5 5 7 4 4 2 2 1 1 5 5 3 6 7 7 8 8 7 7 13 20 22
33 32 31 31 31 30 30 29 29 28 27 28 30 31 30 30 29 26 26 26 25 23 21 23 27 25 27 25 21 13 5 4 5 8 23 27 28 30 27 28 28 22 21 20 16 17 17 16 10 4 4 3 2 2 2 2 3 2 2 4 4 3 2 3 4 3 3 4 6 6 5 4 1 1 3 8 7 5 7 8 10 9 11 13 12 14 16 18
34 32 31 32 31 31 30 30 29 28 28 28 31 33 31 30 30 27 26 26 25 23 21 22 27 27 27 26 22 14 8 5 2 8 5 17 25 30 27 27 27 23 22 18 15 15 13 11 7 4 3 3 5 4 3 2 2 2 2 2 3 3 2 2 2 2 2 6 6 6 4 3 3 1 3 8 8 7 6 7 9 8 13 17 17 16 14 14
35 33 31 31 31 31 30 31 30 30 29 28 31 33 32 31 30 28 26 27 26 24 22 22 26 29 27 23 17 13 9 11 15 1 9 4 17 26 26 27 26 22 21 18 16 13 9 9 7 6 5 3 5 6 3 2 2 2 2 2 2 4 3 2 3 1 3 6 5 4 4 4 6 3 1 5 9 9 6 3 5 9 13 16 15 14 15 17
36 35 32 31 31 31 31 31 30 30 30 29 31 33 33 31 30 29 26 27 26 24 24 21 25 31 30 24 13 7 8 18 36 29 9 8 8 20 25 25 25 23 23 20 18 14 9 12 10 6 6 5 5 5 4 4 2 3 4 1 0 2 2 1 3 3 4 3 1 4 3 4 6 4 1 6 10 9 5 2 7 10 11 12 12 13 14 15
36 36 34 32 31 31 31 31 31 31 30 30 32 34 33 31 31 30 27 27 26 26 25 22 25 34 34 24 11 6 16 30 42 36 26 15 9 18 28 26 25 24 22 20 22 18 11 11 10 6 6 5 5 6 6 5 2 5 6 2 0 2 0 2 1 2 3 1 2 3 2 5 3 2 2 8 9 4 1 5 7 9 10 10 10 12 14 14
37 36 34 31 30 30 30 30 31 30 31 31 32 35 34 31 31 30 29 28 27 27 26 23 25 34 34 20 10 9 18 27 37 36 32 22 12 20 31 30 27 25 21 18 20 18 11 9 8 6 5 2 4 4 4 6 3 5 6 3 2 2 1 3 1 2 2 1 2 3 5 5 2 1 4 8 5 3 6 5 6 9 10 11 10 11 15 16
37 36 34 32 30 30 29 29 31 30 31 32 32 36 35 31 30 30 30 29 28 28 26 25 26 33 31 18 11 11 10 16 27 30 31 25 17 20 31 33 29 25 22 16 18 20 14 13 13 7 3 3 5 3 2 4 2 4 6 3 1 2 3 1 0 3 1 1 4 5 4 5 2 1 6 7 2 5 7 6 7 9 9 11 10 10 12 15
37 37 35 33 31 30 29 29 30 31 32 33 34 36 35 31 29 30 30 30 29 28 28 26 26 30 24 12 14 12 9 18 20 18 23 24 18 19 29 35 32 28 24 15 16 22 16 17 18 7 3 5 6 2 3 3 4 4 5 3 1 4 5 5 2 2 3 1 4 5 4 8 6 6 9 7 2 4 6 7 8 9 9 8 9 8 9 14
36 35 34 33 31 30 30 30 30 31 32 34 35 36 36 32 29 30 30 31 30 28 30 27 28 30 19 7 14 14 12 15 18 17 18 18 13 19 28 34 35 32 29 23 22 24 18 20 19 7 2 6 5 2 3 4 3 2 3 2 1 2 5 7 5 4 4 3 4 4 3 10 9 8 11 8 5 6 6 7 8 8 8 7 8 8 8 12
36 35 34 33 32 30 30 31 31 31 33 35 36 37 37 32 30 31 30 31 29 28 29 26 28 29 18 7 7 18 22 14 16 18 17 16 13 17 25 29 31 28 26 25 24 22 20 22 17 7 3 3 3 3 5 4 1 3 2 0 2 2 4 5 5 7 5 3 4 5 6 10 5 6 10 7 7 8 8 9 8 8 7 7 7 8 9 11
36 35 34 33 32 30 30 31 31 31 33 35 37 37 36 32 30 30 30 31 28 29 28 24 28 21 10 6 6 20 28 17 17 22 23 22 16 14 19 20 18 16 17 18 19 19 21 20 13 6 2 0 3 5 4 2 0 3 3 1 2 4 4 5 3 10 9 3 4 6 5 8 4 6 7 3 7 9 9 9 9 9 9 9 8 9 9 10
36 35 34 33 32 31 31 31 31 31 32 35 37 37 35 31 30 29 30 30 28 29 25 20 28 20 4 4 11 19 23 20 22 24 24 26 21 16 15 16 14 11 11 11 17 19 17 14 6 3 4 2 4 6 4 2 1 3 4 3 4 6 3 4 3 8 10 4 3 6 6 4 2 4 3 1 6 8 8 9 8 9 9 9 8 8 9 8
36 34 33 32 31 31 31 32 33 32 33 35 36 35 32 29 29 28 28 29 27 28 25 18 23 20 5 5 15 16 16 19 25 25 23 25 24 21 16 13 13 15 12 9 15 16 8 6 3 2 3 2 5 6 5 6 5 4 2 1 4 5 4 2 4 4 7 7 6 8 9 8 5 4 3 2 5 7 7 9 8 8 8 8 8 7 8 9
36 34 33 32 31 31 31 32 33 33 34 36 36 33 30 28 28 26 24 25 21 20 23 18 16 12 5 10 15 16 20 22 28 29 24 23 23 24 20 11 9 17 14 6 7 9 2 1 2 3 3 4 7 9 9 8 8 8 6 4 4 4 5 6 4 2 8 8 8 7 9 14 11 9 8 3 6 6 7 8 8 9 8 8 8 8 9 10
34 33 33 32 31 31 32 33 34 34 35 35 34 29 24 21 20 20 20 21 14 10 11 10 12 8 1 12 14 15 26 28 27 25 23 23 21 21 17 7 7 15 14 7 7 8 4 3 3 6 9 10 11 12 9 7 12 13 11 9 5 4 5 5 4 4 7 7 8 11 11 15 12 10 13 9 5 5 8 7 7 7 7 7 8 8 10 10
33 33 33 32 31 31 32 34 34 35 36 34 30 21 14 12 10 9 12 13 11 9 8 6 15 15 1 7 12 16 24 26 20 16 23 27 21 19 11 4 8 11 11 13 11 8 7 6 9 12 13 12 13 11 6 7 11 11 10 8 6 5 5 4 4 5 4 5 7 12 12 13 11 11 13 9 2 4 9 8 8 8 7 8 9 11 12 12
34 33 33 32 32 32 32 34 34 36 36 32 29 16 7 12 10 7 10 9 14 18 14 7 11 16 4 7 20 25 17 16 15 13 23 28 21 17 9 5 9 10 12 15 9 6 7 10 16 15 13 12 12 11 6 6 9 8 8 7 6 6 5 4 4 4 2 3 5 6 9 12 11 12 12 7 5 9 11 10 9 9 9 8 10 13 13 11
34 33 33 33 32 32 32 33 35 37 35 31 29 13 9 22 16 12 17 8 16 24 20 14 8 8 6 5 21 29 13 10 15 12 21 24 15 11 9 8 11 10 12 13 9 8 9 15 17 13 11 11 11 12 9 6 8 8 7 6 6 5 2 3 3 3 1 3 3 2 5 10 10 11 11 9 10 12 11 11 11 10 10 10 10 12 11 10
34 33 33 32 32 33 32 33 35 36 34 30 27 17 20 32 20 16 19 3 9 19 17 18 11 6 10 6 17 26 13 10 13 10 20 23 10 8 10 10 13 10 11 14 13 14 12 13 14 12 12 15 13 12 10 6 6 7 7 6 5 4 4 3 3 2 1 2 1 1 4 8 7 8 11 12 12 11 9 11 12 10 11 12 11 10 10 12
33 33 32 32 33 33 32 34 34 34 36 32 30 31 33 33 24 21 17 0 4 11 13 18 9 5 11 8 19 25 13 12 13 12 21 22 11 8 10 12 14 9 11 17 19 16 8 6 12 12 13 16 13 12 11 7 5 6 7 7 5 5 6 4 2 1 2 2 1 2 5 7 6 8 11 9 6 8 9 9 11 11 12 11 9 9 10 12
34 33 31 33 32 32 34 32 31 35 36 30 30 36 32 27 27 24 11 0 4 5 9 15 7 6 10 9 18 18 9 10 12 17 23 22 18 10 8 10 10 10 15 18 17 12 6 8 15 14 12 14 13 11 11 9 7 5 6 8 7 7 6 4 4 4 3 3 3 2 2 6 4 5 10 5 3 7 6 6 12 13 12 9 9 10 10 10
34 33 32 34 32 34 31 20 28 37 28 23 31 36 30 27 30 22 6 1 6 3 8 12 6 9 11 8 10 10 8 6 7 23 29 26 24 12 7 7 4 10 15 13 9 5 3 9 16 15 13 14 12 10 11 9 7 4 5 8 6 6 7 6 6 4 2 4 3 2 4 6 6 5 8 5 6 10 6 7 13 12 10 9 10 11 10 10
33 33 34 35 34 36 24 13 29 33 17 21 36 37 31 31 31 18 5 1 6 4 8 9 6 11 12 9 12 11 9 7 7 17 25 26 23 7 4 9 5 8 9 6 6 4 7 12 15 17 15 13 12 10 11 12 8 3 4 10 7 6 8 7 7 4 2 3 3 4 3 3 7 6 7 4 6 11 9 11 13 10 9 10 11 12 12 12
34 34 35 35 36 40 31 21 27 26 22 32 40 39 35 34 29 14 2 5 5 6 6 5 4 9 10 11 16 9 7 16 13 11 20 30 24 6 5 14 11 11 11 10 10 5 12 17 17 19 15 12 10 7 10 11 6 2 2 9 7 6 7 5 5 3 1 2 2 3 2 1 7 7 4 2 4 10 12 12 12 10 11 11 11 12 12 12
35 35 35 36 37 41 39 28 26 28 33 38 40 42 39 32 20 6 2 5 4 5 6 6 6 8 8 9 14 8 5 12 10 10 18 25 19 5 4 13 11 13 13 9 5 2 6 10 14 16 11 9 6 5 10 10 3 1 5 10 7 5 6 3 3 4 3 0 5 5 3 1 6 6 2 0 4 10 12 10 10 10 10 9 9 10 10 9
37 35 36 37 34 38 37 25 27 33 32 36 42 42 34 23 9 4 7 5 2 4 5 7 9 11 12 10 11 10 11 8 6 11 11 11 13 7 2 3 6 10 8 3 3 1 1 3 6 9 8 7 6 5 6 8 7 5 6 8 7 5 5 3 1 4 2 3 5 7 6 2 4 5 4 4 5 7 7 7 8 7 7 7 7 8 8 8
37 36 37 38 35 38 30 16 25 35 34 42 45 34 22 10 3 7 8 2 3 5 5 8 13 15 18 16 9 10 14 9 11 17 10 6 11 8 3 3 2 5 4 3 2 2 2 6 4 4 6 9 9 4 3 6 8 7 5 5 5 3 3 2 3 1 4 5 3 7 7 5 5 7 3 5 6 5 6 7 8 8 7 6 6 6 7 7
37 37 38 39 37 39 29 20 34 41 41 49 39 20 11 6 4 7 4 1 4 6 7 10 15 16 18 18 12 11 14 9 14 21 15 11 11 9 11 10 8 8 7 8 6 1 2 8 6 3 6 12 13 5 3 4 7 5 6 6 5 2 1 2 2 2 4 3 0 5 5 3 10 9 6 10 11 9 9 8 8 9 8 8 7 7 6 6
37 38 39 39 38 39 33 31 41 44 47 49 27 9 9 7 7 10 4 1 2 4 9 13 17 19 20 18 13 13 13 10 16 20 17 16 13 13 16 14 15 11 6 12 12 6 5 5 4 6 4 9 14 11 5 5 8 8 8 9 7 4 4 6 4 1 2 1 2 2 1 2 8 7 8 14 14 12 9 8 9 9 9 10 9 7 7 6
38 38 37 39 40 37 35 37 45 48 46 35 16 8 11 8 8 13 9 4 2 2 9 14 18 20 20 17 12 13 12 9 17 20 16 16 12 13 14 14 17 9 3 8 6 6 10 5 8 12 7 10 16 15 12 9 9 10 7 6 5 4 5 5 3 2 2 2 2 1 2 4 5 4 6 9 10 9 8 7 7 7 9 8 7 7 7 8
37 38 35 36 37 35 38 44 50 53 39 20 10 10 11 8 7 12 10 4 2 3 8 13 18 18 17 14 12 15 11 8 18 18 14 16 13 13 14 13 19 13 6 9 4 6 10 5 7 8 4 15 18 10 10 11 8 6 4 4 4 4 4 3 2 3 4 2 1 2 3 4 4 9 13 11 10 9 9 8 7 8 9 6 6 8 8 8
34 35 32 30 32 36 44 48 52 51 32 13 10 8 9 8 4 6 8 5 3 6 13 13 14 14 14 11 11 16 10 6 18 17 11 16 15 17 17 13 20 20 13 12 7 7 10 6 10 8 4 14 15 7 9 11 8 3 4 6 4 3 6 5 1 2 5 3 4 3 5 5 4 11 13 11 13 12 8 7 7 9 8 7 7 8 7 8
29 28 21 20 32 41 47 51 52 42 22 12 12 8 7 6 2 3 6 6 5 8 13 12 10 11 12 9 9 15 9 5 16 15 10 14 12 16 19 12 16 21 16 12 5 3 6 4 7 10 10 11 8 10 7 5 6 6 6 7 3 3 3 4 2 2 3 4 4 3 7 4 2 7 6 5 9 12 9 7 7 8 7 7 9 8 7 8
24 21 11 14 36 46 47 52 48 28 12 10 12 8 3 3 2 2 3 6 5 7 10 8 8 11 12 11 10 14 11 8 14 13 10 12 8 15 21 13 15 22 15 10 4 1 5 4 2 3 8 5 3 9 7 2 1 5 6 6 4 2 3 2 4 3 3 4 3 3 4 3 7 8 5 6 8 8 8 6 6 8 7 7 9 8 8 8
19 13 4 10 35 47 49 50 35 16 8 8 10 9 3 1 2 0 3 5 6 6 8 4 2 6 11 13 13 14 13 11 13 12 10 10 6 13 22 14 15 23 18 11 8 4 5 5 0 3 2 6 4 6 9 6 1 4 5 5 2 2 4 4 3 3 4 5 3 2 2 4 9 7 7 14 13 9 8 7 6 8 8 8 8 7 8 7
10 7 1 10 33 47 51 40 19 10 10 7 7 6 2 1 2 1 4 2 4 3 4 2 1 5 10 14 14 13 12 12 15 11 8 11 9 12 21 15 14 22 20 12 8 5 3 3 3 1 1 6 8 8 13 14 7 5 8 8 5 2 1 2 2 2 4 4 3 2 3 6 6 4 10 16 15 12 11 8 8 8 8 9 9 8 7 6
5 7 1 10 36 48 42 21 7 9 8 4 4 3 2 2 3 1 3 2 3 1 2 5 3 2 5 10 13 12 10 10 14 11 6 12 12 10 18 20 17 20 17 9 7 7 4 4 6 5 4 9 11 9 11 15 13 10 9 8 8 6 3 3 5 2 3 3 4 4 5 7 5 5 10 12 11 11 9 9 9 9 10 11 9 8 7 7
6 8 0 13 40 46 27 7 2 5 4 4 5 3 3 3 3 3 0 3 3 2 3 5 4 2 1 2 6 12 12 9 13 12 7 12 15 11 18 25 23 23 18 12 12 8 3 4 7 6 4 5 4 2 1 7 10 7 6 6 5 4 5 7 9 4 3 2 2 3 4 8 5 4 6 8 7 7 7 7 8 9 10 9 8 7 7 7
5 6 5 16 34 32 15 4 3 3 2 5 5 3 3 3 3 2 0 1 2 2 3 4 3 2 1 3 0 9 12 9 14 15 10 13 18 14 19 26 24 23 18 12 12 6 3 5 7 4 1 3 4 5 6 3 7 5 6 7 7 9 10 7 5 3 4 5 3 2 6 8 5 2 3 6 5 6 6 6 8 9 8 7 7 7 7 8
5 5 6 13 21 18 8 5 6 5 5 7 7 4 2 2 3 2 1 1 1 2 4 3 2 2 2 2 3 3 5 5 13 17 10 11 14 10 18 27 24 21 17 13 14 9 4 8 9 6 3 3 3 2 4 2 4 7 9 9 12 14 9 3 1 2 3 8 8 6 8 8 5 4 3 4 5 6 8 6 7 8 7 6 6 6 7 6
7 4 3 6 8 6 3 2 5 8 9 9 9 6 4 4 3 1 2 2 2 3 4 3 3 4 4 4 4 3 1 1 8 12 9 8 6 3 16 28 24 20 16 13 13 6 3 9 11 11 10 8 8 11 10 10 9 9 12 15 17 18 15 10 5 3 6 8 10 10 9 4 4 5 5 6 6 6 8 6 4 7 7 7 6 5 6 5
6 3 2 3 3 3 0 1 4 8 9 10 8 4 4 6 2 2 2 2 2 3 4 3 5 6 5 4 3 2 2 2 1 7 9 9 4 2 16 27 25 21 16 14 14 7 3 7 12 14 17 17 17 18 18 18 15 11 15 19 20 21 20 14 8 8 11 7 8 15 8 3 4 6 6 7 7 6 6 6 5 6 6 6 5 5 5 5
4 3 3 4 2 2 2 3 5 6 6 7 4 2 5 7 4 2 3 2 1 2 3 3 5 6 6 6 4 2 1 2 3 3 9 11 4 2 16 25 23 21 17 14 15 10 4 8 13 16 19 15 7 5 10 16 18 18 20 22 20 17 16 14 13 15 9 6 10 14 7 2 6 7 8 9 6 4 5 6 6 6 6 5 5 5 5 5
3 2 2 2 3 5 5 5 7 7 6 5 3 3 7 8 5 3 3 2 2 2 2 2 4 7 9 10 6 3 3 1 2 2 5 8 5 4 11 17 18 20 18 12 13 10 5 10 14 16 15 7 5 9 13 15 17 18 20 21 20 18 16 17 21 17 7 7 17 11 9 8 9 6 11 11 5 4 6 6 5 5 7 6 5 6 7 7
3 3 1 2 2 5 8 8 9 10 8 5 4 3 6 9 7 3 2 2 2 2 1 3 6 7 9 11 8 4 4 4 3 2 1 5 9 9 10 11 10 13 15 12 9 7 6 8 10 10 8 4 4 10 15 15 14 13 15 16 18 21 23 23 25 22 14 14 19 8 9 14 13 11 13 10 3 6 5 3 3 5 7 7 6 7 7 7
4 3 2 5 6 6 7 7 7 9 5 3 4 3 4 8 8 4 3 3 2 1 0 3 7 8 9 11 8 7 9 8 6 5 2 4 8 9 9 9 7 8 12 11 8 6 7 7 9 9 6 3 4 8 14 17 16 14 14 14 14 17 20 21 22 20 14 17 23 14 12 15 11 10 10 9 8 8 5 4 5 5 7 7 7 8 8 8
3 1 3 7 7 5 5 4 4 7 4 2 3 3 4 7 9 7 5 3 2 3 2 5 8 8 8 10 9 8 9 11 12 11 6 3 3 4 4 6 12 13 12 11 9 8 9 7 7 9 7 5 6 9 14 16 16 14 14 15 16 16 17 18 20 18 16 20 25 18 15 16 8 7 7 8 11 13 12 10 8 8 9 9 8 9 9 9
3 3 3 6 6 3 4 4 4 5 2 1 3 4 4 6 7 6 6 3 3 3 3 6 8 6 6 9 10 6 4 8 11 11 8 4 1 1 3 2 11 16 13 12 10 8 9 8 6 9 10 9 8 11 13 12 9 10 14 18 22 22 21 21 21 21 20 19 18 15 16 14 6 9 10 11 12 14 15 13 13 12 11 10 10 11 11 10
Wind_Direction
219 220 219 220 223 226 227 228 227 226 229 231 234 239 242 241 237 238 237 230 225 221 217 216 222 229 236 247 250 259 256 230 221 197 204 233 224 220 222 206 199 209 197 197 190 170 148 153 162 156 147 132 31 55 122 54 78 71 103 137 214 184 200 186 180 192 172 186 199 217 186 141 156 203 171 71 54 72 93 27 327 328 342 235 251 195 162 167
218 218 218 220 221 224 226 227 228 227 228 231 233 237 242 241 239 237 237 234 227 225 222 216 218 220 229 238 236 246 239 218 219 211 222 237 228 222 225 208 205 221 194 188 186 167 153 165 160 140 122 104 12 32 239 354 87 103 118 158 227 195 206 201 175 183 174 167 177 188 175 161 170 169 142 146 192 98 132 297 341 343 346 7 155 150 157 162
216 217 217 219 220 222 225 226 228 228 227 231 234 235 240 241 239 237 238 236 229 229 226 218 215 214 223 223 214 224 222 241 248 232 237 237 226 222 224 211 210 225 202 191 193 181 173 168 155 133 88 77 85 51 111 265 114 142 121 175 241 214 213 231 187 189 204 159 149 165 168 179 190 156 146 166 173 209 190 209 269 254 251 153 147 151 156 161
214 216 217 218 218 219 223 225 226 227 227 230 234 235 238 240 239 239 237 236 232 232 229 218 210 210 216 212 216 216 181 328 273 242 247 239 228 224 219 208 205 220 211 195 196 191 176 155 143 120 88 100 17 60 151 221 185 140 136 186 233 203 166 220 206 203 204 160 149 147 122 160 231 169 182 148 140 266 244 218 198 201 195 171 167 161 161 164
215 215 216 217 218 218 220 224 225 227 226 228 233 235 237 239 239 238 237 238 234 231 232 219 207 208 213 214 226 213 106 328 257 256 256 241 232 226 217 203 198 214 212 198 193 180 165 148 130 85 82 115 81 84 206 220 138 148 206 195 202 171 153 209 203 211 188 142 126 126 138 164 187 165 170 159 168 231 230 217 207 193 172 169 170 167 167 171
216 215 215 216 217 217 218 221 224 227 226 227 231 235 237 238 238 237 236 237 234 231 232 221 210 209 210 214 218 193 152 240 275 38 298 239 228 220 215 204 197 211 210 197 182 161 153 145 137 131 105 129 163 180 213 188 128 173 231 220 194 172 200 204 156 238 171 123 136 148 164 132 106 259 194 175 206 229 226 220 204 185 172 168 163 165 171 178
216 215 214 216 216 217 217 220 223 226 227 226 230 235 237 237 236 235 235 235 234 231 229 224 214 205 199 197 194 189 188 235 244 269 43 304 230 217 213 206 202 209 206 190 167 155 152 154 164 155 131 141 179 205 198 124 97 155 210 268 203 174 216 215 127 165 118 125 174 153 124 138 157 202 158 199 236 246 266 269 173 163 162 161 160 171 181 184
216 216 215 215 215 216 216 218 222 224 226 226 229 234 235 236 236 233 232 233 232 229 228 225 210 196 188 179 171 202 215 230 237 238 266 325 265 222 211 207 209 204 199 190 169 162 158 164 176 155 154 188 181 191 165 111 67 183 207 264 199 181 211 325 114 129 106 110 140 103 129 209 188 160 143 231 248 255 271 54 127 142 149 163 173 181 186 189
215 216 215 215 214 215 215 217 220 223 225 226 228 233 234 234 234 232 230 231 231 228 227 223 206 190 184 176 157 226 234 231 235 241 252 264 266 221 206 208 211 198 193 193 179 172 165 172 186 166 163 190 171 171 165 152 218 209 196 173 154 242 155 54 145 133 86 103 73 84 268 275 216 154 260 245 241 243 107 103 131 141 157 180 185 187 188 192
214 215 215 214 213 213 215 216 219 222 224 226 228 232 234 232 232 232 229 228 229 227 223 222 207 183 174 165 156 228 238 235 237 241 245 247 246 214 203 207 207 195 188 189 185 178 173 175 172 145 121 124 161 161 172 177 202 191 175 159 161 263 289 103 213 299 14 263 167 155 259 289 314 206 248 260 242 142 103 119 155 156 176 190 191 197 195 196
213 215 215 214 213 213 214 215 219 222 224 226 227 231 233 229 229 231 228 227 226 224 221 220 208 180 166 159 184 221 218 230 238 235 236 234 227 217 208 206 204 196 188 184 190 187 182 165 142 125 127 148 148 121 244 199 128 141 147 151 169 333 303 158 235 282 328 267 178 155 261 283 315 214 228 256 252 147 141 151 177 181 191 197 196 202 200 206
214 215 214 213 213 213 213 214 217 221 223 225 226 229 231 227 226 227 227 226 224 224 220 219 212 186 162 163 211 214 203 228 231 219 224 221 219 230 218 207 204 202 191 182 190 191 186 160 141 136 189 154 131 127 243 193 89 113 143 166 215 354 297 228 209 213 157 203 181 133 323 274 231 217 229 235 170 141 155 168 190 198 202 201 201 206 207 216
214 214 214 213 213 212 213 214 215 218 221 223 225 226 229 225 222 224 225 224 223 223 220 220 216 196 171 189 220 204 200 216 210 206 215 210 223 236 221 210 207 205 199 191 189 189 184 167 156 147 139 134 144 175 134 103 81 116 142 167 173 345 281 231 184 145 148 185 180 137 285 256 231 231 232 217 163 138 158 193 203 204 209 206 203 210 215 218
213 213 214 214 214 212 212 214 215 216 218 222 224 224 227 223 219 221 222 223 222 221 220 218 214 202 190 197 193 199 206 195 187 196 197 200 223 225 218 215 205 203 205 196 188 185 177 164 150 114 67 123 152 126 85 72 87 122 110 79 149 201 263 253 185 153 168 209 149 135 251 255 246 247 237 214 177 167 187 206 208 208 211 211 207 211 219 218
213 213 214 214 214 213 213 214 215 215 217 221 223 223 225 221 218 219 219 221 220 218 217 214 213 205 199 210 153 185 198 190 185 192 196 205 208 206 217 214 196 197 203 191 182 177 165 152 131 110 125 14 114 106 92 78 91 142 160 185 184 209 264 298 213 171 184 216 136 146 240 268 263 255 257 222 181 184 206 211 207 213 210 210 213 212 220 224
212 212 214 214 213 213 214 215 215 215 216 220 221 222 223 219 217 217 217 218 218 216 210 204 209 207 223 209 159 165 180 190 195 194 203 210 204 200 207 196 177 173 172 160 160 158 151 142 118 120 128 105 137 117 111 136 195 199 181 168 197 211 239 307 277 199 182 157 169 201 238 283 283 262 326 17 184 185 214 226 219 220 220 216 215 216 220 226
211 211 214 215 213 212 213 216 216 214 215 218 219 220 220 216 215 216 216 215 216 213 206 204 206 211 241 144 150 164 178 188 187 185 197 205 201 191 179 179 175 157 132 108 139 143 134 135 138 152 113 135 159 135 161 194 192 186 161 201 228 212 192 218 276 240 174 161 199 219 241 249 247 265 338 50 172 178 213 234 234 227 230 226 220 224 224 224
211 211 213 215 215 212 211 215 216 215 215 216 217 218 217 213 213 215 213 209 209 206 208 217 208 211 232 168 167 177 175 169 170 174 181 186 185 176 169 178 175 150 130 97 147 148 108 84 139 149 151 176 173 173 193 193 172 165 175 213 236 212 200 211 242 218 167 182 210 212 245 249 250 269 274 245 161 174 219 228 236 233 231 235 228 227 227 225
211 211 212 214 214 212 211 213 215 215 215 215 214 212 208 206 208 211 204 196 196 200 205 205 201 218 224 186 189 169 165 158 157 162 159 164 169 168 172 194 189 159 144 155 182 171 148 102 144 177 187 192 185 188 188 158 163 173 184 199 199 196 224 223 236 233 168 170 215 213 234 246 247 257 259 252 174 184 239 239 242 241 233 236 232 232 231 226
211 211 212 214 213 212 212 211 213 215 214 211 203 194 190 188 190 199 191 190 205 223 222 183 200 222 247 159 158 130 147 152 146 154 157 160 156 152 170 208 190 175 164 170 171 170 162 161 193 198 193 186 180 184 165 138 165 175 181 198 201 200 240 233 223 252 169 157 222 219 233 248 248 250 251 258 254 238 252 248 242 237 229 230 228 233 232 228
211 211 212 213 212 212 213 210 211 213 212 204 189 178 182 184 181 176 166 194 217 219 236 235 212 221 217 136 148 135 137 151 146 153 160 157 143 143 171 190 181 192 181 164 146 140 165 195 207 199 182 171 172 179 161 142 162 172 181 196 208 204 238 242 221 260 184 183 245 229 241 253 251 255 257 264 275 257 246 243 242 233 227 227 226 232 233 235
212 214 212 212 211 212 213 210 210 211 208 200 187 184 204 192 190 178 167 189 217 209 225 233 227 218 194 168 161 148 133 155 152 146 154 149 140 154 170 178 188 195 174 153 132 148 187 214 204 181 163 158 168 180 173 162 166 178 182 184 207 196 226 276 276 307 181 196 259 250 248 258 254 257 262 253 247 249 241 237 239 232 230 229 224 228 232 238
214 214 212 213 212 211 211 209 211 209 202 195 189 195 204 198 196 178 169 179 225 204 216 220 220 191 175 181 167 156 143 162 155 143 154 147 145 178 166 181 198 187 170 165 162 172 197 212 184 154 152 157 168 182 176 170 175 187 180 177 207 173 152 241 282 330 192 187 228 266 275 271 258 258 261 247 239 248 246 238 239 233 231 232 228 224 222 228
215 212 211 214 212 209 209 208 208 204 198 195 196 201 202 197 192 175 166 92 234 199 211 216 228 203 182 164 168 169 164 169 158 147 162 154 146 179 176 186 197 186 183 182 178 183 189 156 141 141 152 158 167 181 180 182 192 204 193 187 200 172 165 197 181 66 347 329 5 19 319 285 249 243 252 250 249 254 246 243 250 244 236 239 240 232 222 222
213 211 211 212 211 207 205 203 203 201 196 196 202 203 198 191 189 178 159 193 222 193 196 205 238 231 195 166 174 176 154 172 167 151 166 166 156 169 187 185 193 194 193 189 182 187 186 134 136 144 155 162 172 184 187 185 191 217 206 192 193 180 170 148 126 91 37 312 313 37 297 283 283 255 252 266 298 262 242 234 247 247 239 236 239 238 231 227
213 213 211 209 209 204 199 198 200 198 193 199 202 196 190 187 189 182 134 114 221 194 162 176 199 200 189 177 173 158 147 190 166 150 162 171 166 168 186 175 193 203 191 187 186 189 197 159 149 154 162 167 180 193 188 176 182 221 193 178 180 164 157 152 147 122 132 239 299 63 185 266 310 285 255 259 263 260 255 238 244 248 242 230 230 235 232 228
213 213 211 209 207 199 194 191 193 191 188 202 196 186 183 183 180 170 114 209 214 168 151 163 175 172 169 169 162 156 162 143 114 155 163 165 163 151 180 175 183 200 175 165 203 182 161 164 157 163 167 172 192 198 185 177 181 229 178 158 151 142 159 173 160 149 182 200 334 15 131 257 290 271 260 268 266 269 264 249 247 242 237 233 229 230 229 227
213 212 209 209 207 200 197 188 181 186 197 192 183 179 180 174 165 150 139 220 185 132 144 162 164 155 150 164 172 176 153 135 138 179 167 162 163 131 190 193 184 177 166 173 200 174 158 171 166 165 171 183 194 179 169 172 175 268 140 131 129 134 150 167 154 139 62 110 272 304 96 236 274 270 288 328 264 264 260 250 249 239 231 230 230 232 231 229
212 210 209 207 208 205 200 190 182 192 196 181 171 175 171 157 146 128 246 221 149 121 142 146 155 151 135 163 184 188 147 145 154 166 159 164 168 138 187 201 181 167 172 178 186 143 159 175 164 160 172 184 161 125 160 168 165 220 111 93 84 85 92 96 136 117 51 318 224 224 148 190 271 256 234 71 237 250 256 251 246 239 231 226 229 236 237 236
211 210 209 205 205 201 195 196 193 189 183 171 167 165 154 139 134 185 215 213 118 133 147 147 158 152 146 167 192 177 157 153 128 135 153 167 166 152 110 174 157 160 167 119 99 201 52 95 143 163 175 167 119 97 154 152 139 136 103 82 75 56 55 57 60 87 92 259 222 196 170 135 288 262 203 201 229 235 249 260 259 255 249 236 230 235 237 238
210 209 207 203 201 193 188 194 189 179 172 167 160 150 142 139 178 202 201 189 101 148 155 152 156 156 162 173 189 171 156 147 134 144 158 166 163 168 143 126 123 136 139 103 100 300 84 121 159 189 169 139 117 97 84 128 150 131 98 109 102 54 28 38 9 65 197 242 215 184 162 141 235 257 231 239 258 244 231 249 265 266 264 254 240 237 235 235
210 209 206 203 197 190 189 184 175 172 167 161 153 142 152 166 206 207 205 106 156 177 164 152 158 164 168 176 189 176 158 143 149 156 162 166 168 178 178 179 169 152 161 177 174 43 141 170 176 167 162 147 137 133 69 123 175 141 115 144 140 133 187 185 212 194 205 258 305 171 144 160 238 254 267 264 265 253 233 231 246 253 261 269 265 257 248 239
210 207 204 201 192 188 191 179 168 167 162 156 150 149 174 185 201 200 205 182 201 190 159 155 164 167 167 178 191 179 163 151 159 162 163 169 174 181 187 189 180 178 174 173 172 155 168 218 182 145 165 163 154 160 166 169 185 173 160 170 170 168 190 196 193 156 181 342 9 176 133 278 265 270 256 252 258 262 259 241 234 236 246 261 269 274 274 263
208 203 199 195 189 188 185 172 166 164 158 153 150 160 182 202 193 190 201 211 253 206 159 159 162 164 172 182 183 174 169 159 163 165 164 171 178 182 188 190 188 193 96 147 176 167 170 210 187 171 178 179 175 178 174 156 172 188 175 166 179 182 192 191 176 163 157 74 4 257 214 201 214 260 251 243 256 269 274 262 247 246 246 255 271 277 274 266
205 198 193 185 184 186 178 170 167 162 154 153 166 173 189 195 177 193 198 180 239 191 147 157 159 162 179 184 178 182 182 163 165 168 170 175 179 180 181 186 188 184 133 154 180 174 185 220 183 174 170 177 181 177 149 135 160 199 151 151 216 197 149 114 133 157 127 104 245 212 237 217 215 280 282 271 264 256 255 262 268 266 261 268 275 267 258 255
195 186 183 176 176 180 173 168 164 159 155 159 171 180 200 194 174 193 178 154 201 160 141 158 165 165 179 181 180 191 199 173 165 166 176 180 182 184 183 185 185 181 171 172 167 167 191 202 168 150 141 181 178 145 152 160 160 167 163 183 209 145 118 106 134 44 81 181 228 209 252 287 312 286 280 278 274 267 255 253 258 261 267 275 266 256 250 247
180 169 169 166 170 174 170 165 161 158 158 168 177 189 202 203 194 150 157 153 175 163 149 160 173 171 176 175 181 186 185 158 165 167 174 180 185 188 186 183 184 188 186 176 174 185 175 171 175 159 156 185 171 128 156 188 142 146 192 188 136 86 94 104 139 29 62 216 261 250 240 267 288 268 293 316 284 275 271 264 264 264 263 264 258 251 248 245
162 152 148 155 165 169 167 163 159 157 164 172 183 193 178 202 200 121 170 153 143 175 168 161 173 177 178 176 177 180 173 159 171 170 166 178 189 183 182 179 182 193 191 162 165 233 133 101 306 195 152 159 134 131 154 270 134 147 175 170 138 166 205 149 162 174 179 222 276 290 262 231 212 231 275 278 260 268 286 295 282 262 243 241 251 251 251 252
148 139 126 154 161 164 163 160 157 158 171 176 190 196 173 202 195 340 250 166 131 172 176 145 145 175 184 182 170 173 176 171 173 169 167 182 188 180 183 179 179 191 188 164 170 181 138 128 254 292 136 137 149 169 179 202 299 69 127 165 169 183 198 186 167 158 180 208 242 300 316 241 223 218 231 245 246 244 264 283 272 257 244 238 242 242 243 244
143 129 91 158 155 158 158 156 157 168 176 184 189 184 146 160 178 312 291 179 125 171 175 114 84 167 183 184 172 172 178 175 174 174 177 179 168 175 186 182 178 186 183 169 168 160 136 148 154 18 29 151 172 198 192 187 177 150 165 183 188 171 140 179 177 116 144 178 197 223 264 254 242 217 216 234 245 238 238 251 253 253 252 246 243 238 234 233
133 126 349 159 152 153 154 154 163 171 177 188 164 147 142 163 146 87 333 49 93 68 95 109 117 138 177 182 175 173 176 177 178 179 184 180 175 176 184 183 175 175 174 162 161 166 167 170 153 143 168 184 192 208 203 191 183 178 184 187 186 176 133 178 218 184 132 171 170 175 248 264 243 211 216 225 238 241 235 234 244 252 249 248 249 241 229 225
122 132 175 154 151 151 151 154 163 147 166 172 141 117 147 144 116 131 355 35 85 70 64 93 100 76 60 197 178 172 174 180 181 184 189 188 193 192 182 181 174 170 174 174 174 172 121 119 138 147 176 188 200 299 310 177 164 156 185 184 167 170 166 194 218 201 162 204 133 124 270 276 255 216 223 230 241 255 243 222 235 253 251 251 260 255 239 232
104 113 109 142 153 153 146 142 144 111 121 146 121 81 115 122 102 132 115 41 101 88 76 95 105 113 74 355 150 171 175 179 184 189 189 190 201 202 181 177 170 170 177 175 171 168 62 123 139 131 83 40 38 18 20 89 132 138 195 178 162 193 198 201 213 170 174 209 176 193 258 266 279 298 247 254 275 285 267 234 231 250 259 263 265 259 245 241
103 82 87 132 153 158 149 153 149 129 129 127 113 101 100 83 87 108 130 118 107 110 120 122 115 119 117 51 39 152 168 177 189 193 192 194 203 194 176 178 172 173 183 176 168 176 174 165 151 136 137 61 48 24 4 333 184 186 200 186 187 196 178 141 160 117 199 207 175 196 243 248 273 327 319 291 303 289 272 251 229 240 258 268 264 259 252 251
115 73 46 107 128 134 146 187 143 132 136 128 122 131 122 82 63 67 122 97 52 118 131 123 123 120 104 87 51 28 50 119 187 194 195 194 206 178 174 180 178 181 188 171 157 150 135 164 164 157 160 164 184 195 193 190 192 197 194 189 194 190 174 178 191 174 214 195 166 201 237 266 301 311 324 316 309 288 281 285 258 240 249 262 266 266 267 264
125 108 103 95 61 63 91 224 126 126 134 127 120 133 124 110 97 11 71 77 29 92 100 93 119 109 87 105 94 40 357 1 181 198 192 177 185 212 178 178 183 187 176 148 143 128 92 181 188 183 182 186 195 203 193 178 177 188 190 192 197 192 187 189 186 207 216 184 185 215 211 54 316 284 297 296 277 265 281 303 296 265 260 271 270 271 275 258
111 116 133 127 113 120 123 129 125 124 137 133 120 125 117 118 131 71 43 48 58 83 77 89 138 141 137 149 138 96 177 348 356 237 196 174 156 189 178 178 183 178 157 146 156 146 126 193 195 198 203 200 184 171 167 168 178 186 187 192 196 191 187 190 203 216 195 147 220 224 163 121 273 276 278 268 254 258 273 269 271 277 278 277 274 286 292 274
90 105 126 110 126 144 140 143 140 124 122 122 100 117 124 115 114 96 55 47 39 43 66 97 164 166 153 151 145 138 160 140 338 266 204 178 149 134 171 182 183 168 154 162 175 158 165 198 193 197 205 196 103 122 150 173 191 194 191 190 185 179 183 198 217 219 156 170 234 219 142 200 238 251 261 255 215 206 244 244 255 280 284 288 296 296 291 284
88 96 100 54 82 124 122 129 132 113 105 109 89 101 124 112 102 91 82 77 41 5 59 150 173 168 154 150 148 161 171 166 199 228 254 200 172 154 166 180 184 173 163 168 178 172 185 191 179 181 185 168 141 151 160 178 196 202 202 193 181 184 191 199 215 217 196 219 240 208 167 219 221 210 243 265 237 200 211 235 273 282 280 287 292 277 270 271
114 117 122 97 88 100 104 108 118 108 86 70 91 97 111 113 115 107 69 82 116 144 127 146 154 158 158 157 161 188 190 181 188 194 213 216 185 170 174 171 168 182 176 168 172 192 202 181 154 155 164 189 199 165 164 180 192 197 203 197 186 194 202 208 220 220 205 230 242 225 214 235 221 192 225 273 283 263 254 252 251 256 257 257 262 263 261 262
103 122 119 111 102 99 105 94 96 105 86 38 98 117 99 112 129 124 86 46 96 145 154 137 140 147 155 165 185 205 196 189 198 201 198 211 206 196 206 179 166 171 176 172 172 185 194 179 146 151 177 211 202 176 173 181 191 197 198 195 189 195 206 212 220 215 201 220 235 231 232 242 221 165 196 237 255 264 272 267 253 245 242 238 240 248 251 251
68 68 74 99 97 80 104 104 75 88 90 36 103 109 105 128 147 129 99 52 35 77 110 126 135 139 146 172 193 203 200 199 204 204 189 162 43 343 334 256 180 172 171 174 175 177 175 166 151 163 186 204 191 174 170 168 183 207 205 196 192 197 205 210 217 218 209 213 226 225 232 238 191 153 195 215 222 237 250 254 254 252 245 235 229 231 234 240